[[{"header":{"parameterUnit":"m.s-1","parameterCategory":2,"la1":30.2991,"la2":30.254,"lo1":-89.0895,"lo2":-89.0444,"dx":0.0017,"dy":0.0017,"nx":28,"ny":28,"refTime":"2022-12-23T15:00:00:Z","depth":"0","parameterNumber":2,"parameterNumberName":"U-component_of_CURRENTS"},"data":[0,0,0,0,0,0,0,0,0,0,0,0,0,0,0,0,0,0,0,0,0,0,0,0,0,0,0,0,0,0,0,0,0,0,0,0,0,0,0,0,0,0,0,0,0,0,0,0,0,0,0,0,0,0,0,0,0,0,0.505,0.5051,0,0.5172,0.5174,0.5175,0.5205,0.5204,0.5203,0.5202,0.5289,0.5292,0.5296,0,0,0,0,0,0,0,0,0,0,0,0,0,0.4882,0.4885,0.505,0.5051,0.5052,0.5172,0.5174,0.5176,0.5205,0.5204,0.5202,0.5201,0.5288,0.5292,0.5296,0,0,0,0,0,0,0,0,0,0,0,0,0,0.4978,0.4886,0.505,0.5079,0.5082,0.5171,0.5174,0.5176,0.5205,0.5204,0.5202,0.52,0.5286,0.5291,0.5296,0.5362,0,0,0.5312,0.5314,0,0,0,0,0,0,0,0,0.4972,0.4984,0.5073,0.5077,0.5081,0.5168,0.5147,0.5236,0.5206,0.5162,0.5201,0.52,0.5244,0.5253,0.5285,0.5366,0.537,0.5312,0.5315,0.5318,0.5319,0,0,0,0,0,0,0,0.4965,0.4979,0.5102,0.5075,0.5079,0.5099,0.5111,0.5164,0.5214,0.5166,0.5168,0.5176,0.5246,0.528,0.5287,0.5371,0.5312,0.5317,0.532,0.5322,0.5526,0.5528,0,0,0,0,0,0,0.4944,0.4973,0.5098,0.5105,0.5017,0.5103,0.5116,0.5145,0.5214,0.5222,0.5177,0.5177,0.5272,0.5281,0.529,0.5409,0.5318,0.5322,0.5325,0.5523,0.5526,0.5529,0,0,0,0,0,0,0.494,0.4955,0.5093,0.5037,0.5056,0.5107,0.5139,0.5148,0.5183,0.5222,0.523,0.5201,0.5271,0.5283,0.5364,0.5411,0.5325,0.5329,0.5521,0.5524,0.5528,0.5623,0,0,0,0,0,0,0.4935,0.4953,0.4998,0.5037,0.5058,0.5143,0.5141,0.5152,0.5188,0.5189,0.5246,0.5252,0.5271,0.5357,0.5369,0.5416,0.5333,0.5518,0.5522,0.5526,0.5617,0.5629,0.564,0,0,0,0,0,0.4929,0.4969,0.5,0.5016,0.5108,0.5144,0.5158,0.5189,0.5191,0.5213,0.5268,0.525,0.5392,0.5364,0.5378,0.5427,0.5515,0.5521,0.5526,0.5611,0.5627,0.564,0,0,0,0,0,0,0.4927,0.4977,0.5011,0.507,0.5109,0.5147,0.5172,0.5197,0.5261,0.526,0.5297,0.531,0.5397,0.54,0.5367,0.5497,0.5445,0.5453,0.5505,0.5519,0.5531,0.5482,0.5337,0,0,0,0,0,0.4948,0.4978,0.5036,0.5079,0.5098,0.5143,0.5171,0.5188,0.5234,0.5259,0.5312,0.5364,0.5434,0.5463,0.5517,0.5596,0.5608,0.563,0.5642,0.5652,0.5621,0.5714,0.5731,0.5546,0.5546,0.5546,0,0,0.4947,0.4987,0.5001,0.5079,0.5107,0.5158,0.5155,0.5182,0.5237,0.526,0.5359,0.5413,0.5465,0.5559,0.5595,0.5565,0.5719,0.5658,0.5667,0.563,0.5721,0.5739,0.5755,0.555,0.5549,0.5549,0,0,0.494,0.5003,0.5025,0.506,0.511,0.516,0.5168,0.5228,0.5267,0.5372,0.5404,0.5478,0.5592,0.5635,0.5672,0.5774,0.5782,0.5798,0.5817,0.591,0.5925,0.5939,0.601,0.6029,0.5798,0.5798,0.5799,0,0.4927,0.5005,0.5036,0.5069,0.5108,0.5161,0.5202,0.5262,0.535,0.5391,0.5406,0.5594,0.5624,0.5742,0.5768,0.5799,0.5848,0.5765,0.5925,0.5939,0.5951,0.6019,0.6039,0.5804,0.5803,0.5803,0.5802,0,0.4953,0.5017,0.5023,0.5104,0.5149,0.5185,0.5263,0.5326,0.5398,0.5464,0.5598,0.568,0.578,0.5813,0.5821,0.593,0.5939,0.5938,0.5888,0.5975,0.6042,0.6061,0.5811,0.5809,0.5808,0.5806,0,0,0.4874,0.5018,0.5011,0.5085,0.5173,0.5215,0.5297,0.5405,0.5471,0.5588,0.5705,0.5813,0.5855,0.5895,0.5939,0.5996,0.6129,0.5996,0.5998,0.606,0.634,0.6444,0.6473,0.6178,0.6181,0.6183,0.6363,0,0.4882,0.4988,0.5042,0.5147,0.5226,0.5285,0.5362,0.5451,0.5554,0.5685,0.578,0.5913,0.5895,0.5968,0.6029,0.6126,0.6178,0.6079,0.6247,0.625,0.6329,0.6498,0.6588,0.6766,0.6381,0.6385,0.6387,0,0.4862,0.4976,0.5082,0.5227,0.5253,0.5318,0.5453,0.5526,0.5675,0.5743,0.5874,0.5976,0.6117,0.6083,0.6273,0.6225,0.6262,0.6311,0.632,0.6382,0.6389,0.661,0.6814,0.6974,0.6415,0.6413,0.6411,0,0.481,0.4969,0.5083,0.5128,0.5305,0.535,0.5434,0.5548,0.5632,0.5801,0.591,0.6074,0.6225,0.6303,0.6428,0.6366,0.6633,0.6569,0.6684,0.6691,0.6776,0.6786,0.7142,0.6653,0.6653,0.6652,0.6652,0,0.4776,0.4858,0.5088,0.514,0.5285,0.5368,0.5483,0.5554,0.5706,0.5847,0.5956,0.6149,0.6289,0.6479,0.6505,0.6712,0.6715,0.6718,0.6766,0.6816,0.6828,0.6971,0.6983,0.6659,0.6657,0.6656,0.6655,0,0.4675,0.4803,0.4962,0.5185,0.5258,0.535,0.5523,0.5606,0.5731,0.5935,0.6011,0.627,0.6542,0.6672,0.6857,0.6866,0.6955,0.7033,0.708,0.7131,0.7359,0.737,0.715,0.6931,0.7198,0.7202,0.7205,0,0.467,0.4756,0.4984,0.5086,0.5192,0.5358,0.545,0.5595,0.57,0.6036,0.615,0.6491,0.6745,0.7087,0.722,0.7357,0.7145,0.7433,0.7303,0.7438,0.7485,0.6992,0.6781,0.7459,0.7464,0.7469,0.7472,0,0.4739,0.4783,0.4902,0.5069,0.5203,0.5329,0.5492,0.5595,0.5798,0.5995,0.631,0.6559,0.7018,0.7309,0.753,0.759,0.7328,0.7522,0.7675,0.7746,0.7215,0.7011,0.7248,0.751,0.7506,0.7503,0.7501,0.75,0.4796,0.4855,0.4969,0.5084,0.5201,0.5269,0.5293,0.5502,0.5677,0.5949,0.6329,0.6699,0.7345,0.7741,0.7724,0.8034,0.7598,0.8041,0.805,0.7533,0.7302,0.7615,0.7921,0.792,0.7918,0.7917,0.7916,0,0.4905,0.4899,0.5009,0.5072,0.5066,0.515,0.528,0.5272,0.5416,0.5943,0.6228,0.707,0.7575,0.7997,0.8647,0.8684,0.8046,0.8604,0.8036,0.7793,0.8227,0.8242,0.8619,0.8618,0.8618,0.8618,0.8618,0.8618,0.4947,0.4973,0.4951,0.4918,0.4924,0.4828,0.4831,0.4893,0.5202,0.5738,0.6285,0.6779,0.7922,0.9144,0.9606,0.9359,0.8788,0.8526,0.8234,0.8865,0.8812,0.8761,0.8785,0.927,0.9271,0.752,0.7511,0.7504]},{"header":{"parameterUnit":"m.s-1","parameterCategory":2,"la1":30.2991,"la2":30.254,"lo1":-89.0895,"lo2":-89.0444,"dx":0.0017,"dy":0.0017,"nx":28,"ny":28,"refTime":"2022-12-23T15:00:00:Z","depth":"0","parameterNumber":3,"parameterNumberName":"V-component_of_CURRENTS"},"data":[0,0,0,0,0,0,0,0,0,0,0,0,0,0,0,0,0,0,0,0,0,0,0,0,0,0,0,0,0,0,0,0,0,0,0,0,0,0,0,0,0,0,0,0,0,0,0,0,0,0,0,0,0,0,0,0,0,0,-0.0658,-0.0659,0,-0.0821,-0.0824,-0.0827,-0.0979,-0.098,-0.098,-0.0981,-0.1224,-0.123,-0.1236,0,0,0,0,0,0,0,0,0,0,0,0,0,-0.0642,-0.0641,-0.0658,-0.0659,-0.066,-0.0821,-0.0825,-0.0828,-0.0979,-0.098,-0.098,-0.0981,-0.1222,-0.1229,-0.1236,0,0,0,0,0,0,0,0,0,0,0,0,0,-0.0725,-0.0641,-0.0658,-0.0743,-0.0751,-0.082,-0.0825,-0.0829,-0.0979,-0.098,-0.098,-0.0981,-0.1219,-0.1228,-0.1237,-0.1278,0,0,-0.1265,-0.1269,0,0,0,0,0,0,0,0,-0.072,-0.0727,-0.073,-0.0737,-0.0746,-0.0867,-0.0907,-0.0978,-0.0979,-0.0909,-0.0981,-0.0981,-0.1101,-0.112,-0.117,-0.129,-0.13,-0.1265,-0.1271,-0.1275,-0.1277,0,0,0,0,0,0,0,-0.0714,-0.0722,-0.0738,-0.073,-0.074,-0.0828,-0.0841,-0.0923,-0.1012,-0.0915,-0.0922,-0.0916,-0.1109,-0.1161,-0.1177,-0.1304,-0.1265,-0.1273,-0.1279,-0.1282,-0.143,-0.1428,0,0,0,0,0,0,-0.0653,-0.0715,-0.0733,-0.0742,-0.0718,-0.0826,-0.0841,-0.084,-0.101,-0.1031,-0.0915,-0.0922,-0.1145,-0.1166,-0.1186,-0.1196,-0.1275,-0.1283,-0.1288,-0.1431,-0.1429,-0.1428,0,0,0,0,0,0,-0.0653,-0.0654,-0.0726,-0.072,-0.0734,-0.0822,-0.0822,-0.0843,-0.0878,-0.1006,-0.1033,-0.0924,-0.1146,-0.1173,-0.1237,-0.1208,-0.1287,-0.1296,-0.1433,-0.1431,-0.1429,-0.1248,0,0,0,0,0,0,-0.0652,-0.0653,-0.0657,-0.0716,-0.0731,-0.0737,-0.082,-0.0845,-0.0866,-0.0877,-0.1023,-0.1048,-0.1149,-0.1222,-0.1246,-0.1222,-0.1303,-0.1435,-0.1432,-0.1429,-0.1255,-0.1239,-0.1226,0,0,0,0,0,-0.0651,-0.0621,-0.0656,-0.0659,-0.0725,-0.0733,-0.0751,-0.0829,-0.0864,-0.0867,-0.0965,-0.1043,-0.1221,-0.1229,-0.1256,-0.1235,-0.1436,-0.1433,-0.143,-0.1262,-0.1243,-0.1226,0,0,0,0,0,0,-0.0606,-0.0635,-0.0674,-0.0655,-0.0681,-0.0752,-0.0753,-0.0803,-0.0887,-0.0891,-0.1032,-0.1063,-0.111,-0.119,-0.1195,-0.1267,-0.1338,-0.134,-0.1201,-0.1184,-0.1169,-0.1127,-0.131,0,0,0,0,0,-0.0595,-0.0585,-0.0625,-0.0605,-0.0608,-0.068,-0.0699,-0.0736,-0.0799,-0.0838,-0.094,-0.1039,-0.1121,-0.1163,-0.1251,-0.1289,-0.1348,-0.129,-0.1275,-0.1262,-0.1245,-0.1306,-0.1295,-0.1417,-0.1417,-0.1417,0,0,-0.0569,-0.0579,-0.0577,-0.0596,-0.0625,-0.0612,-0.0696,-0.0683,-0.0685,-0.0848,-0.0892,-0.0992,-0.1119,-0.1168,-0.1194,-0.1229,-0.1254,-0.1258,-0.1245,-0.1236,-0.1302,-0.129,-0.1279,-0.1414,-0.1415,-0.1415,0,0,-0.0468,-0.0515,-0.0464,-0.048,-0.0486,-0.0538,-0.0518,-0.0575,-0.0616,-0.0659,-0.0775,-0.0847,-0.0978,-0.1063,-0.1122,-0.1073,-0.1173,-0.1099,-0.0992,-0.1051,-0.1041,-0.1034,-0.1068,-0.1065,-0.109,-0.1089,-0.1089,0,-0.0445,-0.0397,-0.0449,-0.0399,-0.0407,-0.0487,-0.0442,-0.0488,-0.0564,-0.0586,-0.064,-0.082,-0.0927,-0.0988,-0.0979,-0.1038,-0.1081,-0.1049,-0.103,-0.1024,-0.1019,-0.1057,-0.1056,-0.108,-0.1081,-0.1082,-0.1083,0,-0.0304,-0.0285,-0.0244,-0.0233,-0.0246,-0.0215,-0.027,-0.0281,-0.0346,-0.0415,-0.048,-0.0633,-0.0737,-0.0781,-0.0873,-0.089,-0.0933,-0.1003,-0.1069,-0.0995,-0.104,-0.1042,-0.1067,-0.107,-0.1073,-0.1075,0,0,-0.0208,-0.0166,-0.0146,-0.0132,-0.0165,-0.0148,-0.0132,-0.016,-0.0133,-0.0249,-0.0252,-0.0412,-0.05,-0.0572,-0.0695,-0.0754,-0.0761,-0.0849,-0.0856,-0.0869,-0.0868,-0.0904,-0.0912,-0.0828,-0.0828,-0.0828,-0.0903,0,-0.0097,0.0012,0.0005,0.0081,0.0101,0.0043,0.0072,0.0041,-0.0026,-0.0049,-0.0204,-0.0267,-0.0419,-0.0457,-0.0541,-0.0708,-0.0762,-0.0733,-0.0949,-0.0955,-0.0987,-0.0914,-0.0895,-0.0962,-0.0906,-0.0906,-0.0907,0,0.0067,0.0076,0.0172,0.0211,0.0228,0.0263,0.0278,0.0295,0.024,0.0195,0.0095,-0.003,-0.0148,-0.0281,-0.0512,-0.0485,-0.0651,-0.0784,-0.0792,-0.0891,-0.0996,-0.1035,-0.097,-0.1413,-0.0911,-0.0911,-0.0911,0,0.0162,0.0229,0.0293,0.0294,0.031,0.0359,0.0375,0.0359,0.0414,0.0336,0.0358,0.0171,0.0116,-0.0128,-0.0412,-0.0456,-0.0654,-0.0757,-0.0943,-0.0947,-0.1007,-0.1017,-0.1387,-0.0902,-0.0902,-0.0902,-0.0901,0,0.0298,0.0344,0.0341,0.0366,0.0454,0.0444,0.0573,0.0562,0.06,0.0709,0.048,0.053,0.0156,-0.0009,-0.0315,-0.0614,-0.0583,-0.0899,-0.0964,-0.0942,-0.0944,-0.1397,-0.1723,-0.0904,-0.0904,-0.0903,-0.0903,0,0.0399,0.0424,0.0465,0.0479,0.0509,0.0562,0.0717,0.0836,0.0821,0.0957,0.0953,0.0817,0.0613,0.0228,-0.0134,-0.0446,-0.1076,-0.088,-0.0814,-0.0871,-0.1477,-0.1792,-0.2286,-0.2689,-0.1095,-0.1096,-0.1097,0,0.0419,0.0455,0.0526,0.0624,0.0638,0.0742,0.0881,0.0923,0.1074,0.1169,0.1272,0.1115,0.1079,0.0501,-0.0082,-0.0611,-0.1117,-0.0963,-0.1065,-0.1491,-0.1892,-0.2121,-0.2446,-0.1066,-0.1067,-0.1068,-0.1068,0,0.039,0.0461,0.0554,0.0754,0.0903,0.1066,0.1255,0.1408,0.1532,0.1656,0.183,0.1806,0.1258,0.0756,-0.0015,-0.0432,-0.1409,-0.0993,-0.1462,-0.1921,-0.2169,-0.2591,-0.1034,-0.1074,-0.1073,-0.1073,-0.1072,-0.1072,0.0388,0.0499,0.0724,0.0931,0.1133,0.1413,0.1608,0.1843,0.211,0.2373,0.2311,0.2403,0.1598,0.0555,-0.0161,-0.1364,-0.151,-0.1702,-0.2047,-0.2232,-0.2654,-0.1094,-0.12,-0.1201,-0.1201,-0.1201,-0.1201,0,0.0434,0.0678,0.0891,0.1216,0.1502,0.1557,0.1909,0.2139,0.2495,0.2769,0.2926,0.2724,0.1612,0.0475,-0.1125,-0.2132,-0.2669,-0.274,-0.3086,-0.3381,-0.1965,-0.1993,-0.2242,-0.2241,-0.2241,-0.224,-0.224,-0.2239,0.0524,0.0831,0.0995,0.1486,0.1727,0.2101,0.2316,0.2618,0.2904,0.3307,0.3498,0.354,0.2889,-0.0221,-0.2383,-0.3054,-0.4067,-0.4211,-0.4782,-0.3777,-0.3706,-0.3638,-0.3736,-0.4345,-0.4349,-0.6063,-0.608,-0.6093]}],[{"header":{"parameterUnit":"m.s-1","parameterCategory":2,"la1":30.2991,"la2":30.254,"lo1":-89.0895,"lo2":-89.0444,"dx":0.0017,"dy":0.0017,"nx":28,"ny":28,"refTime":"2022-12-23T15:00:00:Z","depth":"2","parameterNumber":2,"parameterNumberName":"U-component_of_CURRENTS"},"data":[0,0,0,0,0,0,0,0,0,0,0,0,0,0,0,0,0,0,0,0,0,0,0,0,0,0,0,0,0,0,0,0,0,0,0,0,0,0,0,0,0,0,0,0,0,0,0,0,0,0,0,0,0,0,0,0,0,0,0.5037,0.5038,0,0.5159,0.5161,0.5162,0.5192,0.5191,0.519,0.5189,0.5277,0.528,0.5284,0,0,0,0,0,0,0,0,0,0,0,0,0,0.481,0.4815,0.5037,0.5038,0.5039,0.5159,0.5161,0.5163,0.5193,0.5191,0.519,0.5189,0.5276,0.528,0.5284,0,0,0,0,0,0,0,0,0,0,0,0,0,0.4922,0.4816,0.5036,0.5066,0.5069,0.5158,0.5161,0.5163,0.5193,0.5191,0.519,0.5188,0.5274,0.5279,0.5284,0.535,0,0,0.53,0.5302,0,0,0,0,0,0,0,0,0.4915,0.493,0.506,0.5064,0.5068,0.5156,0.5113,0.5223,0.5193,0.515,0.5189,0.5187,0.5232,0.5241,0.5273,0.5354,0.5357,0.53,0.5303,0.5306,0.5307,0,0,0,0,0,0,0,0.4908,0.4925,0.5089,0.5062,0.5066,0.5066,0.5081,0.5134,0.5201,0.5153,0.5155,0.5164,0.5234,0.5268,0.5275,0.5359,0.53,0.5305,0.5308,0.531,0.5513,0.5516,0,0,0,0,0,0,0.4889,0.4919,0.5085,0.5092,0.4982,0.5071,0.5088,0.5132,0.5201,0.5209,0.5165,0.5164,0.526,0.5269,0.5278,0.5397,0.5306,0.531,0.5313,0.5511,0.5514,0.5516,0,0,0,0,0,0,0.4885,0.4905,0.508,0.5002,0.5024,0.5077,0.5126,0.5135,0.517,0.521,0.5217,0.5189,0.5259,0.5271,0.5352,0.5398,0.5313,0.5317,0.5508,0.5512,0.5515,0.561,0,0,0,0,0,0,0.4878,0.4903,0.4959,0.5003,0.5028,0.513,0.5128,0.5139,0.5176,0.5177,0.5233,0.524,0.5259,0.5344,0.5357,0.5404,0.5321,0.5505,0.551,0.5514,0.5604,0.5616,0.5627,0,0,0,0,0,0.4871,0.4924,0.4962,0.4983,0.5095,0.513,0.5144,0.5176,0.5178,0.52,0.5256,0.5238,0.538,0.5352,0.5365,0.5415,0.5503,0.5508,0.5514,0.5599,0.5614,0.5627,0,0,0,0,0,0,0.4875,0.4934,0.4975,0.5056,0.5095,0.5134,0.5158,0.5183,0.5248,0.5246,0.5285,0.5298,0.5385,0.5388,0.5355,0.5484,0.5432,0.5441,0.5492,0.5507,0.5518,0.5467,0.5325,0,0,0,0,0,0.4902,0.4938,0.5005,0.5064,0.5082,0.5128,0.5157,0.5174,0.522,0.5246,0.5299,0.5351,0.5421,0.5451,0.5505,0.5583,0.5594,0.5617,0.5629,0.5639,0.5607,0.5699,0.5716,0.5534,0.5534,0.5534,0,0,0.4907,0.4953,0.4972,0.5064,0.5092,0.5141,0.514,0.5167,0.5221,0.5247,0.5345,0.54,0.5452,0.5547,0.5583,0.5552,0.5704,0.5645,0.5654,0.5615,0.5706,0.5724,0.5739,0.5537,0.5537,0.5536,0,0,0.4905,0.4986,0.5007,0.5042,0.5092,0.5141,0.515,0.521,0.525,0.5355,0.5389,0.5464,0.5577,0.5621,0.5659,0.5761,0.5768,0.5784,0.5802,0.5895,0.591,0.5923,0.5992,0.601,0.5785,0.5785,0.5785,0,0.4898,0.4986,0.5018,0.5049,0.5087,0.5142,0.5181,0.5242,0.533,0.5372,0.5389,0.5578,0.5609,0.5727,0.5754,0.5785,0.5834,0.5751,0.591,0.5923,0.5935,0.6001,0.6021,0.579,0.579,0.5789,0.5789,0,0.4924,0.4995,0.4999,0.5079,0.5123,0.5158,0.5236,0.53,0.5373,0.5441,0.5576,0.5661,0.5761,0.5796,0.5805,0.5914,0.5922,0.5922,0.5872,0.5959,0.6024,0.6042,0.5798,0.5796,0.5794,0.5793,0,0,0.4857,0.4995,0.4988,0.506,0.5144,0.5186,0.5266,0.5374,0.5441,0.556,0.5677,0.5788,0.5832,0.5873,0.592,0.5977,0.6109,0.5978,0.598,0.604,0.6317,0.6417,0.6446,0.6158,0.6161,0.6164,0.6339,0,0.4862,0.4965,0.5015,0.5115,0.5193,0.5251,0.5327,0.5416,0.552,0.5653,0.5751,0.5885,0.587,0.5945,0.6006,0.6105,0.6157,0.606,0.6225,0.6228,0.6304,0.6471,0.5734,0.5838,0.6357,0.636,0.6362,0,0.4841,0.4953,0.5055,0.5194,0.5219,0.5282,0.5416,0.5488,0.5638,0.5708,0.5841,0.5945,0.6086,0.6056,0.6245,0.6199,0.6237,0.6286,0.6296,0.6354,0.6363,0.5829,0.5851,0.6392,0.639,0.6387,0.6385,0,0.4792,0.4944,0.5055,0.5099,0.5272,0.5316,0.5397,0.5511,0.5595,0.5765,0.5874,0.6039,0.6191,0.627,0.6397,0.6337,0.6602,0.654,0.6652,0.6658,0.6039,0.5989,0.6622,0.6622,0.6622,0.6621,0.6621,0,0.4755,0.4835,0.5064,0.5116,0.5259,0.5337,0.545,0.552,0.567,0.581,0.592,0.6112,0.6254,0.6444,0.6471,0.6677,0.6681,0.6683,0.6732,0.6062,0.6015,0.6477,0.6458,0.6628,0.6626,0.6625,0.6624,0,0.4655,0.4781,0.4939,0.5161,0.5233,0.5324,0.5491,0.5574,0.5697,0.5899,0.5974,0.6232,0.6503,0.6634,0.682,0.6828,0.6958,0.6993,0.6214,0.6173,0.6912,0.6895,0.7141,0.7147,0.7151,0.7155,0.7159,0,0.4649,0.4736,0.4966,0.5066,0.5171,0.5335,0.5426,0.5566,0.5669,0.6,0.6113,0.6451,0.666,0.7,0.6911,0.6982,0.7167,0.6524,0.6285,0.6954,0.6975,0.6951,0.6929,0.5467,0.5456,0.5447,0.544,0,0.4719,0.4765,0.4884,0.5052,0.5186,0.5309,0.5468,0.557,0.5767,0.5916,0.6228,0.6432,0.6684,0.6483,0.6612,0.6558,0.6462,0.6371,0.7227,0.5541,0.5415,0.5426,0.5448,0.5361,0.5369,0.5375,0.5379,0.5382,0.4779,0.4837,0.4953,0.5067,0.5183,0.525,0.5271,0.5333,0.5443,0.5475,0.5972,0.5943,0.6076,0.5868,0.5786,0.5697,0.6147,0.5915,0.5921,0.5941,0.5808,0.5708,0.5678,0.5687,0.5696,0.5703,0.5709,0,0.4794,0.4881,0.4991,0.5053,0.4952,0.513,0.5257,0.5061,0.4963,0.5091,0.5127,0.4779,0.4679,0.4893,0.4537,0.4681,0.4366,0.4647,0.4113,0.4199,0.4274,0.4034,0.3445,0.3439,0.3433,0.3428,0,0,0.481,0.4792,0.4769,0.47,0.4789,0.4568,0.4567,0.4326,0.4247,0.4,0.3918,0.4137,0.4618,0.3849,0.3848,0.3615,0.3849,0.3468,0.5264,0.4707,0.4772,0.4988,0.4724,0,0,0,0,0]},{"header":{"parameterUnit":"m.s-1","parameterCategory":2,"la1":30.2991,"la2":30.254,"lo1":-89.0895,"lo2":-89.0444,"dx":0.0017,"dy":0.0017,"nx":28,"ny":28,"refTime":"2022-12-23T15:00:00:Z","depth":"2","parameterNumber":3,"parameterNumberName":"V-component_of_CURRENTS"},"data":[0,0,0,0,0,0,0,0,0,0,0,0,0,0,0,0,0,0,0,0,0,0,0,0,0,0,0,0,0,0,0,0,0,0,0,0,0,0,0,0,0,0,0,0,0,0,0,0,0,0,0,0,0,0,0,0,0,0,-0.0633,-0.0633,0,-0.0795,-0.0798,-0.0802,-0.0954,-0.0954,-0.0955,-0.0955,-0.1198,-0.1204,-0.121,0,0,0,0,0,0,0,0,0,0,0,0,0,-0.0574,-0.0574,-0.0632,-0.0633,-0.0634,-0.0795,-0.0799,-0.0802,-0.0954,-0.0954,-0.0955,-0.0955,-0.1196,-0.1203,-0.1211,0,0,0,0,0,0,0,0,0,0,0,0,0,-0.0668,-0.0575,-0.0632,-0.0718,-0.0726,-0.0794,-0.0799,-0.0803,-0.0953,-0.0954,-0.0955,-0.0956,-0.1194,-0.1203,-0.1212,-0.1252,0,0,-0.1239,-0.1243,0,0,0,0,0,0,0,0,-0.0662,-0.0672,-0.0704,-0.0712,-0.0721,-0.0842,-0.0866,-0.0952,-0.0953,-0.0883,-0.0955,-0.0956,-0.1076,-0.1095,-0.1144,-0.1264,-0.1274,-0.124,-0.1245,-0.1249,-0.1252,0,0,0,0,0,0,0,-0.0656,-0.0666,-0.0712,-0.0705,-0.0714,-0.0788,-0.0803,-0.0885,-0.0987,-0.0889,-0.0897,-0.0891,-0.1083,-0.1135,-0.1151,-0.1278,-0.124,-0.1248,-0.1253,-0.1257,-0.1404,-0.1402,0,0,0,0,0,0,-0.0598,-0.0659,-0.0707,-0.0716,-0.0676,-0.0787,-0.0804,-0.0815,-0.0984,-0.1006,-0.089,-0.0897,-0.1119,-0.114,-0.116,-0.117,-0.1249,-0.1258,-0.1263,-0.1405,-0.1403,-0.1402,0,0,0,0,0,0,-0.0596,-0.0601,-0.07,-0.0679,-0.0694,-0.0784,-0.0796,-0.0817,-0.0852,-0.0981,-0.1008,-0.0899,-0.1121,-0.1147,-0.1211,-0.1182,-0.1262,-0.127,-0.1407,-0.1404,-0.1402,-0.1221,0,0,0,0,0,0,-0.0594,-0.06,-0.0612,-0.0675,-0.0693,-0.0711,-0.0795,-0.0819,-0.084,-0.0852,-0.0997,-0.1022,-0.1123,-0.1197,-0.122,-0.1196,-0.1277,-0.1409,-0.1406,-0.1403,-0.1229,-0.1213,-0.1199,0,0,0,0,0,-0.0592,-0.0573,-0.0613,-0.0619,-0.0699,-0.0707,-0.0725,-0.0803,-0.0839,-0.0842,-0.094,-0.1017,-0.1195,-0.1203,-0.1231,-0.1209,-0.141,-0.1407,-0.1403,-0.1236,-0.1216,-0.12,0,0,0,0,0,0,-0.0553,-0.0587,-0.0632,-0.0628,-0.0655,-0.0726,-0.0726,-0.0777,-0.0861,-0.0865,-0.1006,-0.1037,-0.1084,-0.1165,-0.1169,-0.1241,-0.1312,-0.1314,-0.1175,-0.1158,-0.1143,-0.11,-0.1284,0,0,0,0,0,-0.0545,-0.0539,-0.0587,-0.0578,-0.0581,-0.0653,-0.0673,-0.071,-0.0773,-0.0811,-0.0914,-0.1013,-0.1095,-0.1137,-0.1225,-0.1263,-0.1322,-0.1264,-0.1248,-0.1235,-0.1218,-0.1279,-0.1268,-0.139,-0.139,-0.1391,0,0,-0.0525,-0.0538,-0.054,-0.0568,-0.0597,-0.0584,-0.0669,-0.0656,-0.0658,-0.0822,-0.0865,-0.0966,-0.1093,-0.1141,-0.1168,-0.1203,-0.1227,-0.1231,-0.1219,-0.1208,-0.1274,-0.1263,-0.1252,-0.1388,-0.1389,-0.1389,0,0,-0.0427,-0.0486,-0.0436,-0.0451,-0.0457,-0.051,-0.0489,-0.0546,-0.0588,-0.0631,-0.0748,-0.0821,-0.0951,-0.1036,-0.1096,-0.1046,-0.1147,-0.1072,-0.0965,-0.1024,-0.1014,-0.1006,-0.1041,-0.1038,-0.1063,-0.1062,-0.1062,0,-0.0409,-0.0367,-0.042,-0.037,-0.0377,-0.0458,-0.0412,-0.0458,-0.0535,-0.0557,-0.0611,-0.0792,-0.09,-0.0961,-0.0952,-0.1011,-0.1054,-0.1022,-0.1002,-0.0996,-0.0991,-0.1029,-0.1028,-0.1053,-0.1054,-0.1055,-0.1056,0,-0.0268,-0.0255,-0.0213,-0.0201,-0.0214,-0.0183,-0.0238,-0.0249,-0.0315,-0.0384,-0.045,-0.0603,-0.0708,-0.0753,-0.0846,-0.0862,-0.0905,-0.0975,-0.1041,-0.0968,-0.1013,-0.1015,-0.104,-0.1044,-0.1046,-0.1049,0,0,-0.0181,-0.0136,-0.0116,-0.01,-0.0132,-0.0115,-0.0098,-0.0126,-0.01,-0.0216,-0.022,-0.0381,-0.047,-0.0542,-0.0665,-0.0725,-0.0732,-0.082,-0.0828,-0.0841,-0.0839,-0.0877,-0.0885,-0.0799,-0.0799,-0.0799,-0.0875,0,-0.0069,0.0042,0.0037,0.0115,0.0136,0.0079,0.0107,0.0077,0.0009,-0.0015,-0.0171,-0.0235,-0.0388,-0.0427,-0.0511,-0.068,-0.0733,-0.0704,-0.0921,-0.0926,-0.096,-0.0887,-0.086,-0.0926,-0.0878,-0.0878,-0.0879,0,0.0096,0.0105,0.0203,0.0245,0.0263,0.0299,0.0314,0.0331,0.0275,0.0229,0.0129,0.0002,-0.0116,-0.0249,-0.0481,-0.0454,-0.0621,-0.0755,-0.0763,-0.0863,-0.0969,-0.1,-0.0933,-0.0883,-0.0883,-0.0883,-0.0882,0,0.0189,0.026,0.0324,0.0327,0.0344,0.0394,0.0411,0.0395,0.0449,0.037,0.0391,0.0204,0.0147,-0.0096,-0.0382,-0.0426,-0.0625,-0.0728,-0.0915,-0.092,-0.0972,-0.0981,-0.0872,-0.0872,-0.0872,-0.0872,-0.0871,0,0.0327,0.0373,0.0371,0.0396,0.0485,0.0477,0.0607,0.0595,0.0634,0.0741,0.0513,0.0561,0.0187,0.0021,-0.0285,-0.0585,-0.0554,-0.0871,-0.0937,-0.0906,-0.0908,-0.0946,-0.0953,-0.0875,-0.0874,-0.0873,-0.0873,0,0.0427,0.0453,0.0495,0.0508,0.0539,0.0592,0.0749,0.0868,0.0853,0.0988,0.0984,0.0846,0.0641,0.0255,-0.0107,-0.0418,-0.0735,-0.0853,-0.0779,-0.0835,-0.1015,-0.1013,-0.1065,-0.1067,-0.1069,-0.107,-0.1071,0,0.0447,0.0483,0.0553,0.0652,0.0666,0.0771,0.091,0.0954,0.1105,0.1198,0.13,0.1141,0.109,0.0511,-0.0064,-0.0593,-0.068,-0.093,-0.103,-0.0973,-0.1033,-0.1028,-0.1023,-0.102,-0.1021,-0.1021,-0.1022,0,0.0418,0.0488,0.0581,0.078,0.0929,0.1093,0.1282,0.1435,0.156,0.1672,0.1843,0.1805,0.1259,0.0727,-0.0046,-0.0423,-0.0857,-0.0957,-0.0906,-0.0976,-0.0938,-0.0994,-0.099,-0.1026,-0.1026,-0.1025,-0.1025,-0.1025,0.0415,0.0525,0.0749,0.0955,0.1158,0.1437,0.1633,0.1838,0.2091,0.2277,0.2215,0.2115,0.1508,0.0513,-0.0122,-0.0836,-0.083,-0.1112,-0.1107,-0.1103,-0.1085,-0.1052,-0.1156,-0.1157,-0.1157,-0.1157,-0.1157,0,0.0505,0.0704,0.0916,0.1241,0.1543,0.1581,0.1932,0.2135,0.2439,0.2513,0.257,0.2014,0.1334,0.0636,-0.0416,-0.1028,-0.1084,-0.1221,-0.1165,-0.1158,-0.1152,-0.1135,-0.1221,-0.1222,-0.1223,-0.1224,0,0,0.0607,0.0927,0.109,0.1562,0.1771,0.2137,0.2351,0.2566,0.2692,0.2808,0.2692,0.2367,0.1546,0.078,-0.0051,-0.063,-0.0748,-0.0749,-0.0643,-0.0472,-0.0458,-0.1047,-0.1007,0,0,0,0,0]}],[{"header":{"parameterUnit":"m.s-1","parameterCategory":2,"la1":30.2991,"la2":30.254,"lo1":-89.0895,"lo2":-89.0444,"dx":0.0017,"dy":0.0017,"nx":28,"ny":28,"refTime":"2022-12-23T15:00:00:Z","depth":"4","parameterNumber":2,"parameterNumberName":"U-component_of_CURRENTS"},"data":[0,0,0,0,0,0,0,0,0,0,0,0,0,0,0,0,0,0,0,0,0,0,0,0,0,0,0,0,0,0,0,0,0,0,0,0,0,0,0,0,0,0,0,0,0,0,0,0,0,0,0,0,0,0,0,0,0,0,0.2379,0.238,0,0.2474,0.2474,0.2475,0.2508,0.2508,0.2509,0.2509,0.2625,0.2628,0.263,0,0,0,0,0,0,0,0,0,0,0,0,0,0.2074,0.2079,0.2378,0.2381,0.2383,0.2474,0.2475,0.2475,0.2507,0.2508,0.2509,0.2509,0.2624,0.2627,0.263,0,0,0,0,0,0,0,0,0,0,0,0,0,0.2182,0.2081,0.2378,0.2417,0.2423,0.2474,0.2475,0.2475,0.2507,0.2508,0.2509,0.251,0.2623,0.2627,0.2631,0.2638,0,0,0.2643,0.2644,0,0,0,0,0,0,0,0,0.2176,0.2192,0.241,0.2415,0.2421,0.2489,0.241,0.2534,0.2507,0.2464,0.2509,0.251,0.2587,0.2594,0.2596,0.2644,0.2649,0.2643,0.2645,0.2647,0.2648,0,0,0,0,0,0,0,0.2169,0.2187,0.2406,0.2412,0.2419,0.238,0.2396,0.2432,0.2513,0.2468,0.2473,0.25,0.2589,0.2592,0.2599,0.265,0.2643,0.2646,0.2649,0.265,0.2879,0.2883,0,0,0,0,0,0,0.2186,0.2182,0.2403,0.241,0.2309,0.2386,0.2404,0.2458,0.2512,0.2524,0.2499,0.2501,0.2585,0.2594,0.2603,0.275,0.2647,0.2651,0.2653,0.2875,0.288,0.2884,0,0,0,0,0,0,0.2179,0.2205,0.24,0.2303,0.2327,0.2393,0.2451,0.246,0.2519,0.2537,0.2547,0.2558,0.2586,0.2598,0.2682,0.275,0.2652,0.2656,0.2871,0.2877,0.2882,0.2957,0,0,0,0,0,0,0.217,0.2203,0.225,0.2306,0.2334,0.2476,0.2452,0.2461,0.2535,0.254,0.259,0.2598,0.2587,0.2676,0.2686,0.2753,0.2659,0.2866,0.2874,0.288,0.295,0.2965,0.2977,0,0,0,0,0,0.2159,0.2212,0.2252,0.2279,0.2397,0.248,0.249,0.2529,0.2538,0.258,0.261,0.2599,0.2729,0.2682,0.2692,0.2762,0.2863,0.2871,0.288,0.2944,0.2962,0.2977,0,0,0,0,0,0,0.2107,0.2224,0.2267,0.2358,0.2441,0.2491,0.2542,0.2565,0.2619,0.2651,0.2636,0.2648,0.275,0.2754,0.2703,0.2854,0.2799,0.281,0.2845,0.2862,0.2875,0.2865,0.2662,0,0,0,0,0,0.2122,0.2189,0.2301,0.2374,0.2438,0.2502,0.2544,0.2594,0.2647,0.2674,0.2691,0.2736,0.2784,0.2821,0.2862,0.294,0.2966,0.2999,0.3012,0.3024,0.3027,0.3126,0.3148,0.2912,0.2912,0.2912,0,0,0.2116,0.2193,0.2231,0.2367,0.2441,0.2522,0.253,0.2645,0.2696,0.2681,0.2753,0.279,0.2819,0.2902,0.295,0.2919,0.3113,0.3034,0.3043,0.304,0.3137,0.3159,0.3179,0.2918,0.2917,0.2916,0,0,0.213,0.2234,0.23,0.2392,0.2542,0.2578,0.263,0.273,0.2775,0.2861,0.2863,0.2934,0.3001,0.3022,0.3043,0.3163,0.3184,0.3203,0.326,0.3357,0.3376,0.3393,0.3479,0.3503,0.3207,0.3207,0.3207,0,0.2129,0.2223,0.2329,0.2433,0.2495,0.2611,0.2691,0.2761,0.2859,0.2915,0.291,0.3029,0.3049,0.3139,0.3176,0.3191,0.3254,0.3185,0.3372,0.3389,0.3406,0.3489,0.3514,0.3211,0.3211,0.321,0.321,0,0.2204,0.2285,0.2345,0.2494,0.2577,0.2678,0.2803,0.291,0.2971,0.302,0.3151,0.317,0.3249,0.3267,0.3252,0.3388,0.34,0.3376,0.3319,0.3433,0.3515,0.354,0.3218,0.3216,0.3215,0.3214,0,0,0.2195,0.2352,0.2388,0.2438,0.2624,0.2697,0.2842,0.2979,0.3109,0.3179,0.3289,0.3348,0.3395,0.3421,0.343,0.3485,0.3648,0.3489,0.3492,0.3555,0.3886,0.3655,0.366,0.3673,0.3678,0.3681,0.3903,0,0.2222,0.2346,0.2434,0.2545,0.2611,0.2773,0.289,0.3053,0.3185,0.3332,0.3388,0.3507,0.3446,0.3526,0.3571,0.3641,0.3718,0.3591,0.3782,0.3787,0.3551,0.3681,0.3695,0.3921,0.3927,0.3931,0.3934,0,0.2301,0.234,0.2435,0.2561,0.2625,0.2713,0.2962,0.3094,0.335,0.348,0.3614,0.3683,0.379,0.3725,0.3881,0.3819,0.3872,0.3892,0.3901,0.3669,0.3601,0.3782,0.398,0.3976,0.3973,0.397,0.3967,0,0.2238,0.2364,0.2404,0.246,0.2631,0.2731,0.2854,0.3135,0.3287,0.3594,0.3742,0.388,0.398,0.4053,0.4102,0.4042,0.4261,0.4186,0.4024,0.401,0.4114,0.4093,0.4316,0.4316,0.4315,0.4315,0.4314,0,0.2233,0.2276,0.2377,0.2417,0.2506,0.2684,0.2876,0.3092,0.3381,0.3579,0.3797,0.3945,0.4075,0.4199,0.4209,0.4195,0.437,0.4056,0.4055,0.4145,0.4125,0.4133,0.4109,0.4323,0.4321,0.4319,0.4318,0,0.2152,0.2243,0.2279,0.2419,0.248,0.2558,0.2829,0.3013,0.3329,0.3599,0.3706,0.4031,0.4222,0.4319,0.4471,0.432,0.4345,0.4306,0.4437,0.4436,0.4004,0.3982,0.4135,0.4129,0.4124,0.4119,0.4115,0,0.2073,0.21,0.2236,0.2294,0.2347,0.249,0.2649,0.2959,0.3158,0.3617,0.3731,0.4033,0.4213,0.4236,0.4359,0.4403,0.4332,0.4319,0.4091,0.4004,0.3989,0.3975,0.3961,0.4107,0.4106,0.4104,0.4103,0,0.1893,0.2,0.2056,0.2188,0.2314,0.2426,0.265,0.2742,0.3155,0.343,0.3685,0.3804,0.4016,0.4105,0.419,0.4193,0.4298,0.4261,0.4269,0.4055,0.3972,0.3959,0.3951,0.4085,0.4087,0.4089,0.409,0,0.1773,0.1793,0.1966,0.2059,0.2227,0.235,0.2449,0.2673,0.2873,0.3348,0.3413,0.3742,0.3995,0.4005,0.4079,0.4075,0.3977,0.3796,0.3825,0.3847,0.3641,0.3485,0.347,0,0,0,0,0,0.1638,0.1739,0.1832,0.1969,0.2138,0.2241,0.2493,0.2623,0.2946,0.305,0.3224,0.342,0.3563,0.3716,0.365,0.3936,0.3982,0.3839,0.3785,0.3983,0.4004,0.3782,0,0,0,0,0,0,0.1604,0.1722,0.1795,0.1889,0.1963,0.2148,0.2285,0.249,0.2554,0.2872,0.2967,0.3201,0.3384,0.3567,0.3583,0.3625,0.3516,0.4021,0.4012,0.3971,0.399,0.4007,0.3786,0,0,0,0,0]},{"header":{"parameterUnit":"m.s-1","parameterCategory":2,"la1":30.2991,"la2":30.254,"lo1":-89.0895,"lo2":-89.0444,"dx":0.0017,"dy":0.0017,"nx":28,"ny":28,"refTime":"2022-12-23T15:00:00:Z","depth":"4","parameterNumber":3,"parameterNumberName":"V-component_of_CURRENTS"},"data":[0,0,0,0,0,0,0,0,0,0,0,0,0,0,0,0,0,0,0,0,0,0,0,0,0,0,0,0,0,0,0,0,0,0,0,0,0,0,0,0,0,0,0,0,0,0,0,0,0,0,0,0,0,0,0,0,0,0,0.0451,0.045,0,0.0385,0.0384,0.0384,0.0339,0.0338,0.0338,0.0337,0.0201,0.0198,0.0195,0,0,0,0,0,0,0,0,0,0,0,0,0,0.0584,0.0582,0.0451,0.045,0.0449,0.0385,0.0384,0.0383,0.0339,0.0338,0.0338,0.0337,0.0202,0.0198,0.0195,0,0,0,0,0,0,0,0,0,0,0,0,0,0.0526,0.0581,0.0451,0.0417,0.0413,0.0385,0.0384,0.0383,0.0339,0.0338,0.0337,0.0337,0.0203,0.0199,0.0194,0.0183,0,0,0.018,0.0178,0,0,0,0,0,0,0,0,0.0529,0.0521,0.0423,0.0419,0.0415,0.0367,0.0381,0.0312,0.0339,0.037,0.0337,0.0336,0.0249,0.024,0.0235,0.0176,0.017,0.018,0.0177,0.0175,0.0173,0,0,0,0,0,0,0,0.0533,0.0524,0.0427,0.0422,0.0417,0.042,0.0411,0.0368,0.0316,0.0367,0.0363,0.0352,0.0246,0.0239,0.0231,0.0168,0.018,0.0176,0.0173,0.0171,0.0048,0.0048,0,0,0,0,0,0,0.0534,0.0527,0.043,0.0425,0.0468,0.0418,0.0408,0.0385,0.0318,0.0306,0.0353,0.035,0.0248,0.0236,0.0226,0.02,0.0175,0.017,0.0168,0.0049,0.0048,0.0048,0,0,0,0,0,0,0.0537,0.0525,0.0432,0.0474,0.0462,0.0416,0.0392,0.0384,0.0377,0.0307,0.0294,0.0352,0.0247,0.0232,0.0192,0.0195,0.0168,0.0164,0.0049,0.0049,0.0048,0.0153,0,0,0,0,0,0,0.0541,0.0527,0.0534,0.0473,0.0459,0.0418,0.0392,0.0384,0.0369,0.0365,0.0302,0.0288,0.0245,0.02,0.0188,0.0188,0.016,0.005,0.0049,0.0048,0.0151,0.0156,0.0161,0,0,0,0,0,0.0546,0.0559,0.0534,0.0524,0.0462,0.0418,0.0412,0.038,0.037,0.037,0.0329,0.029,0.0184,0.0196,0.0182,0.0181,0.005,0.0049,0.0048,0.0148,0.0155,0.0161,0,0,0,0,0,0,0.061,0.0554,0.0526,0.0517,0.0469,0.041,0.0412,0.0387,0.0358,0.0348,0.0294,0.0278,0.0241,0.0193,0.0208,0.0139,0.0107,0.0103,0.0187,0.0194,0.0199,0.0225,0.0157,0,0,0,0,0,0.0628,0.0637,0.0556,0.0555,0.0524,0.047,0.0456,0.0421,0.0377,0.0364,0.0331,0.0278,0.0226,0.0198,0.015,0.012,0.0054,0.0103,0.0109,0.0114,0.0123,0.0027,0.0025,0.0044,0.0044,0.0044,0,0,0.0655,0.0627,0.063,0.0573,0.0531,0.0506,0.046,0.0426,0.0422,0.0351,0.0356,0.03,0.0222,0.0189,0.0166,0.015,0.0072,0.0113,0.0119,0.0124,0.0026,0.0024,0.0023,0.0044,0.0044,0.0044,0,0,0.0708,0.0673,0.0687,0.0651,0.0588,0.0546,0.0536,0.0475,0.0461,0.0444,0.0387,0.0337,0.0283,0.0224,0.0184,0.0187,0.0107,0.0166,0.0215,0.0123,0.0121,0.0118,0.0032,0.0021,0.0167,0.0167,0.0167,0,0.0735,0.074,0.0685,0.0676,0.0663,0.0566,0.0564,0.0529,0.0477,0.0468,0.0455,0.0364,0.0299,0.0238,0.0238,0.0201,0.0138,0.0204,0.0132,0.0128,0.0124,0.0036,0.0022,0.0172,0.0172,0.0171,0.0171,0,0.0777,0.0788,0.0787,0.0751,0.0729,0.0708,0.0635,0.0617,0.0592,0.0556,0.0513,0.0432,0.0372,0.0339,0.0292,0.0227,0.0189,0.0155,0.0125,0.0129,0.0035,0.0019,0.0179,0.0177,0.0176,0.0175,0,0,0.0801,0.0819,0.0815,0.0841,0.0768,0.0757,0.0733,0.0688,0.0681,0.0629,0.0629,0.053,0.0478,0.0428,0.0351,0.0275,0.0186,0.0214,0.0206,0.0145,-0.0017,-0.0033,-0.0052,0.0142,0.014,0.0138,-0.0069,0,0.0841,0.089,0.0875,0.0918,0.0929,0.0859,0.0864,0.0812,0.0754,0.0729,0.0623,0.0585,0.051,0.0481,0.0391,0.0237,0.0149,0.0246,-0.0027,-0.0035,-0.0036,-0.0069,0.0132,-0.0082,-0.0085,-0.0088,-0.009,0,0.0858,0.0911,0.0978,0.1035,0.1028,0.1051,0.1028,0.1015,0.092,0.0872,0.0785,0.0694,0.0571,0.0516,0.0255,0.0321,0.0163,0.0045,0.0033,-0.0027,-0.008,-0.0092,-0.012,-0.0118,-0.0115,-0.0113,-0.0112,0,0.091,0.0969,0.1055,0.1065,0.1103,0.1142,0.115,0.1077,0.1075,0.0961,0.0934,0.076,0.0688,0.0473,0.022,0.0228,-0.0064,-0.0093,-0.0259,-0.0262,-0.0229,-0.0225,-0.028,-0.0279,-0.0279,-0.0278,-0.0278,0,0.0939,0.1009,0.111,0.1159,0.1272,0.1255,0.1328,0.1274,0.1224,0.1218,0.1032,0.0972,0.0675,0.0471,0.0236,-0.006,-0.0069,-0.0258,-0.032,-0.0182,-0.017,-0.0241,-0.0234,-0.0286,-0.0284,-0.0283,-0.0282,0,0.0983,0.1024,0.1166,0.1278,0.131,0.1405,0.1475,0.1503,0.1423,0.1404,0.1376,0.1124,0.0837,0.053,0.016,-0.003,-0.0316,-0.0419,-0.0246,-0.0293,-0.0459,-0.0444,-0.0632,-0.0635,-0.0637,-0.0638,-0.064,0,0.1037,0.1106,0.1285,0.137,0.1443,0.1568,0.1632,0.1608,0.1621,0.1492,0.1483,0.1212,0.1012,0.0483,0.0142,-0.0328,-0.0386,-0.0539,-0.0503,-0.0455,-0.0497,-0.0479,-0.0462,-0.0643,-0.0643,-0.0644,-0.0644,0,0.116,0.1221,0.1328,0.1498,0.1618,0.1739,0.1828,0.1847,0.1796,0.1745,0.1548,0.1244,0.0913,0.0483,0.0113,-0.0217,-0.0442,-0.0561,-0.0559,-0.0527,-0.0471,-0.0506,-0.0487,-0.0651,-0.065,-0.065,-0.0649,0,0.1269,0.1359,0.1471,0.1608,0.175,0.1841,0.1897,0.1895,0.1887,0.1735,0.1674,0.1289,0.1066,0.0539,0.0202,-0.0134,-0.022,-0.0316,-0.0328,-0.0325,-0.0174,-0.0053,-0.0166,0,0,0,0,0,0.1363,0.1406,0.1553,0.1677,0.1817,0.1888,0.1973,0.2,0.1966,0.1848,0.1754,0.1437,0.0881,0.0631,0.0292,0.016,-0.0275,-0.0249,-0.0389,-0.069,-0.0682,-0.0558,0,0,0,0,0,0,0.1399,0.1516,0.1547,0.1691,0.1787,0.1923,0.199,0.198,0.19,0.182,0.1532,0.1366,0.0834,0.1087,0.0292,0.0184,0.005,-0.0509,-0.0517,-0.0694,-0.0687,-0.0681,-0.0551,0,0,0,0,0]}]]